Mt. Pocono, PA

11:30 PM EDT on May 27, 2018 (GMT -0400)
Pocono Mountains Municipal

Weather History for KMPO - May, 2013

Change the Weather History Date:

Saturday, May 18, 2013

  Actual Average Record
Temperature  
Mean Temperature 53 °F 56 °F  
Max Temperature 63 °F 66 °F 87 °F (1962)
Min Temperature 43 °F 46 °F 28 °F (1983)
Degree Days  
Heating Degree Days 12 10  
Month to date heating degree days 210 215  
Since 1 July heating degree days 6655 6909  
Cooling Degree Days 0 0  
Month to date cooling degree days 0 0  
Year to date cooling degree days 1 4  
Growing Degree Days 2 (Base 50)    
Moisture  
Dew Point 46 °F    
Average Humidity 68    
Maximum Humidity 93    
Minimum Humidity 42    
Precipitation  
Precipitation 0.08 in 0.15 in 1.42 in (1963)
Month to date precipitation 1.71 2.20  
Year to date precipitation 11.20 15.31  
Sea Level Pressure  
Sea Level Pressure 30.27 in    
Wind  
Wind Speed 6 mph (SE)    
Max Wind Speed 15 mph    
Max Gust Speed 18 mph    
Visibility 9 miles    
Events Rain    
T = Trace of Precipitation, MM = Missing Value Source: NWS Daily Summary

Daily Weather History Graph

Daily Weather History Graph

Search for Another Location

Airport or City:

Astronomy

May. 18, 2013 Rise Set
Actual Time 5:40 AM EDT 8:16 PM EDT
Civil Twilight 5:08 AM EDT 8:47 PM EDT
Nautical Twilight 4:29 AM EDT 9:27 PM EDT
Astronomical Twilight 3:44 AM EDT 10:12 PM EDT
Moon 1:13 PM EDT (5/18) 1:35 AM EDT (5/18)
Length of Visible Light 15h 39m
Length of Day
14h 35m
First Quarter, 55% of the Moon is Illuminated
May 18
First Quarter
May 25
Full
May 31
Last Quarter
Jun 8
New
Jun 16
First Quarter

Hourly Weather History & Observations

Time (EDT) Temp. Windchill Dew Point Humidity Pressure Visibility Wind Dir Wind Speed Gust Speed Precip Events Conditions
12:53 AM 46.0 °F - 41.0 °F 83% 30.24 in 10.0 mi Calm Calm - N/A   Clear
1:53 AM 44.1 °F - 39.9 °F 85% 30.24 in 10.0 mi Calm Calm - N/A   Clear
2:53 AM 43.0 °F - 39.0 °F 86% 30.24 in 10.0 mi Calm Calm - N/A   Clear
3:53 AM 44.1 °F 42.5 °F 39.9 °F 85% 30.24 in 10.0 mi NE 3.5 mph - N/A   Mostly Cloudy
4:53 AM 46.9 °F - 42.1 °F 83% 30.24 in 10.0 mi Calm Calm - N/A   Overcast
5:53 AM 51.1 °F - 44.1 °F 77% 30.24 in 10.0 mi ENE 3.5 mph - N/A   Overcast
6:53 AM 52.0 °F - 39.0 °F 61% 30.26 in 10.0 mi ESE 4.6 mph - N/A   Overcast
7:53 AM 53.1 °F - 39.0 °F 59% 30.27 in 10.0 mi ESE 3.5 mph - N/A   Mostly Cloudy
8:53 AM 55.9 °F - 41.0 °F 57% 30.28 in 10.0 mi Variable 3.5 mph - N/A   Mostly Cloudy
9:53 AM 60.1 °F - 37.0 °F 42% 30.28 in 10.0 mi South 11.5 mph 17.3 mph N/A   Mostly Cloudy
10:53 AM 61.0 °F - 37.0 °F 41% 30.29 in 10.0 mi South 9.2 mph - N/A   Partly Cloudy
11:53 AM 59.0 °F - 39.9 °F 49% 30.30 in 10.0 mi South 8.1 mph - N/A   Mostly Cloudy
12:53 PM 57.0 °F - 42.1 °F 57% 30.29 in 10.0 mi SE 5.8 mph - 0.00 in Rain Light Rain
1:53 PM 54.0 °F - 48.0 °F 80% 30.30 in 9.0 mi East 6.9 mph - 0.02 in Rain Light Rain
2:53 PM 53.1 °F - 48.0 °F 83% 30.31 in 6.0 mi ESE 5.8 mph - 0.03 in Rain Light Rain
3:53 PM 53.1 °F - 48.9 °F 86% 30.30 in 10.0 mi ESE 9.2 mph - 0.03 in Rain Light Rain
4:53 PM 53.1 °F - 50.0 °F 89% 30.29 in 10.0 mi ESE 8.1 mph - 0.00 in   Overcast
5:29 PM 53.6 °F - 51.8 °F 94% 30.26 in 9.0 mi SE 9.2 mph - N/A   Overcast
5:53 PM 54.0 °F - 51.1 °F 90% 30.27 in 7.0 mi SE 9.2 mph - N/A   Overcast
6:11 PM 53.6 °F - 51.8 °F 94% 30.26 in 8.0 mi SE 9.2 mph - N/A   Overcast
6:53 PM 54.0 °F - 51.1 °F 90% 30.29 in 9.0 mi SE 5.8 mph - N/A   Overcast
7:23 PM 53.6 °F - 51.8 °F 94% 30.28 in 7.0 mi SE 8.1 mph - N/A   Overcast
7:53 PM 53.1 °F - 51.1 °F 93% 30.29 in 7.0 mi SE 6.9 mph - N/A   Overcast
8:39 PM 53.6 °F - 51.8 °F 94% 30.28 in 5.0 mi SE 8.1 mph - N/A   Overcast
8:53 PM 53.1 °F - 51.1 °F 93% 30.28 in 5.0 mi SE 9.2 mph - N/A   Overcast
9:16 PM 53.6 °F - 51.8 °F 94% 30.27 in 6.0 mi SE 10.4 mph 18.4 mph N/A   Overcast
9:51 PM 53.6 °F - 50.0 °F 88% 30.28 in 9.0 mi SE 8.1 mph - N/A   Overcast
9:53 PM 53.1 °F - 50.0 °F 89% 30.28 in 9.0 mi SE 8.1 mph - N/A   Overcast
10:53 PM 53.1 °F - 50.0 °F 89% 30.28 in 10.0 mi SSE 10.4 mph - N/A   Overcast
11:01 PM 53.6 °F - 50.0 °F 88% 30.28 in 10.0 mi SSE 9.2 mph - N/A   Overcast
11:46 PM 53.6 °F - 50.0 °F 88% 30.28 in 10.0 mi SSE 5.8 mph - N/A   Overcast
11:53 PM 53.1 °F - 50.0 °F 89% 30.28 in 10.0 mi SSE 8.1 mph - N/A   Overcast